Location: Flumini Malu
(39.7000°N, 8.5667°E)
Time: 15:32:33
(UTC+00:00)

Daily predictions for brighter satellites

Satellite Brightness Start Highest point End
(mag) Time Altitude Azimuth Time Altitude Azimuth Time Altitude Azimuth
Cosmos 1933 3.4 16:26:26 10° S 16:30:25 62° E 16:34:26 10° NNE
CRYOSAT 2 4.4 16:26:16 10° N 16:31:10 72° E 16:36:02 10° S
Cosmos 1633 Rocket 3.3 16:28:13 10° N 16:32:25 45° E 16:36:35 10° SSE
Meteor 2-12 Rocket 4.5 16:30:32 10° N 16:36:43 88° E 16:42:49 10° S
Cosmos 2218 Rocket 4.2 16:33:04 10° N 16:39:00 49° ENE 16:44:58 10° SSE
Cosmos 2366 rocket 4.2 16:34:02 10° N 16:39:59 48° ENE 16:45:52 10° SSE
Envisat 3.2 16:35:12 10° S 16:40:17 80° WSW 16:45:23 10° NNW
ERS-2 3.3 16:37:35 10° NE 16:40:36 24° E 16:43:37 10° SSE
Meteor 1-25 Rocket 4.3 16:35:12 10° N 16:40:47 59° ENE 16:46:25 10° SSE
Lacrosse 5 rocket 3.1 16:43:36 10° W 16:46:24 20° NW 16:49:09 10° NNE
Cosmos 773 Rocket 4.1 16:41:25 10° SSW 16:46:41 88° WNW 16:52:00 10° NNE
SL-23 DEB 4.0 16:44:25 10° WSW 16:47:46 70° NNW 16:52:39 11° NE
NOSS 3-2 (A) 4.1 16:44:27 10° S 16:49:10 30° ESE 16:54:01 11° NE
YAOGAN 6 3.0 16:45:53 10° S 16:49:29 68° W 16:53:05 10° NNW
Cosmos 1606 4.5 16:48:39 10° SW 16:52:12 34° WNW 16:55:47 10° NNW
FengYun 1-2 T 4.3 16:49:08 10° SSE 16:54:31 56° ENE 16:59:54 10° N
AQUARIUS 4.1 16:50:06 10° SSE 16:54:34 73° ENE 16:59:03 10° N
Cosmos 2297 3.9 16:50:42 10° NNW 16:56:24 77° WSW 17:02:06 10° SSE
SL-16 R/B 3.2 16:51:26 10° SW 16:56:52 47° WNW 17:02:20 10° NNE
CZ-4B R/B 1.4 16:57:04 10° NNE 17:00:07 50° E 17:03:13 10° S
BREEZE-M DEB (TANK) 3.6 17:00:11 10° W 17:02:15 21° NNW 17:03:26 14° NNE
SMAP 3.2 16:58:55 10° S 17:03:34 79° WSW 17:08:14 10° NNW
USA 215 3.7 16:59:20 13° ENE 17:04:58 46° SE 17:11:11 10° SSW
YAOGAN 1 4.4 17:09:19 14° NE 17:09:19 14° NE 17:10:18 10° NNE
Cosmos 1500 4.2 17:04:42 10° NNE 17:07:56 25° ENE 17:11:08 10° SE
USA 238 DEB 4.1 17:02:11 10° S 17:08:10 40° ESE 17:13:06 16° NE
USA 238 4.1 17:02:17 10° S 17:08:16 40° ESE 17:13:10 16° NE
Cosmos 1151 Rocket 3.7 17:06:21 10° SSW 17:10:33 56° W 17:14:45 10° N
Cosmos 1656 Rocket 4.4 17:07:31 10° N 17:12:23 29° ENE 17:17:10 10° ESE
Cosmos 1470 Rocket 3.4 17:10:37 10° N 17:14:58 77° E 17:19:16 10° S
MOS 1 Rocket 4.4 17:13:25 13° NE 17:17:20 29° E 17:21:54 10° SSE
Cosmos 158 Rocket 4.3 17:13:13 10° S 17:17:51 40° ESE 17:20:54 19° NE
Cosmos 1515 Rocket 3.5 17:14:08 10° S 17:18:31 85° E 17:22:56 10° N
CZ-2C R/B 3.6 17:15:07 10° SE 17:19:25 30° ENE 17:23:35 10° N
SWAS 4.4 17:16:29 10° SSW 17:20:45 85° ESE 17:24:10 16° NNE
Cosmos 923 Rocket 4.3 17:16:15 10° S 17:21:10 46° ESE 17:24:49 18° NE
Cosmos 2263 4.4 17:16:00 10° N 17:21:22 44° ENE 17:26:41 10° SE
Cosmos 482 Debris 3.4 17:22:27 10° NW 17:23:46 40° NNW 17:23:46 40° NNW
USA 281 3.8 17:20:41 10° ESE 17:26:27 34° NE 17:32:15 10° N
Cosmos 1238 Rocket 3.8 17:23:17 10° NNE 17:27:07 33° E 17:31:39 10° SE
YAOGAN 3 4.5 17:23:13 10° SSE 17:27:32 67° ENE 17:31:53 10° N
Nadezhda 3 Rocket 4.1 17:21:34 10° SSE 17:27:44 55° E 17:33:55 10° NNE
COSMO-SKYMED 1 2.5 17:23:31 10° NNE 17:27:52 70° ESE 17:32:10 10° S
Cosmos 1689 Rocket 2.5 17:29:01 40° ESE 17:29:01 40° ESE 17:31:32 10° S
X-37B 1.6 17:25:48 10° W 17:28:46 35° N 17:29:28 31° NNE
Meteor 2-6 Rocket 4.1 17:25:20 10° S 17:30:51 62° E 17:36:15 10° NNE
Cosmos 2228 Rocket 3.2 17:26:41 10° S 17:31:06 53° E 17:34:29 17° NNE
SAR-Lupe-4 3.4 17:29:13 22° NNE 17:31:22 67° E 17:34:56 10° S
Meteor 1-4 Rocket 4.0 17:29:15 10° SW 17:32:37 36° WNW 17:35:56 10° N
H-2A R/B 3.0 17:35:18 26° NE 17:35:18 26° NE 17:38:36 10° N
Cosmos 1812 2.7 17:31:14 10° S 17:34:58 58° E 17:36:34 31° NNE
USA 267 4.2 17:34:11 23° NE 17:36:26 28° NNE 17:41:48 10° NNW
Cosmos 1939 Rocket 2.7 17:32:58 10° SSE 17:36:49 87° E 17:40:46 10° N
CZ-4 R/B 4.4 17:34:33 10° SSE 17:38:37 60° ENE 17:42:43 10° N
CZ-4 R/B 3.0 17:41:27 20° NNE 17:41:27 20° NNE 17:42:53 10° N
Cosmos 2084 4.1 17:35:36 10° S 17:39:27 34° ESE 17:39:33 34° ESE
Cosmos 1821 Rocket 4.0 17:33:43 10° N 17:39:56 62° E 17:46:12 10° SSE
BREEZE-M DEB (TANK) 1.9 17:38:31 10° SW 17:42:33 65° SSE 17:42:53 58° ESE
Meteor 1-11 Rocket 4.2 17:37:31 10° N 17:42:56 39° ENE 17:48:25 10° SE
IRS-1C Rocket 4.0 17:37:49 10° SSE 17:43:04 77° ENE 17:48:22 10° N
PSLV R/B 3.7 17:42:20 30° NNE 17:44:12 71° E 17:48:14 10° S
Cosmos 44 Rocket 3.9 17:39:57 10° NNW 17:44:48 38° NE 17:45:08 37° ENE
Cosmos 1933 Rocket 3.8 17:40:34 10° NNW 17:45:01 73° W 17:49:26 10° S
Lacrosse 4 Rocket 2.1 17:43:58 10° S 17:46:59 34° SE 17:46:59 34° SE
Cosmos 1680 Rocket 3.5 17:42:50 10° S 17:48:00 62° ESE 17:50:19 33° NE
SAR-Lupe-1 4.1 17:46:35 29° N 17:48:20 75° WNW 17:51:54 10° SSW
SL-24 R/B 3.9 17:49:33 21° N 17:51:54 67° WNW 17:55:30 10° SSW
Cosmos 1603 4.1 17:46:48 10° SW 17:52:22 63° WNW 17:56:55 16° NNE
CZ-2D R/B 3.2 17:49:53 10° SSE 17:53:42 85° W 17:57:33 10° NNW
Cosmos 1943 3.5 17:50:06 10° SSW 17:55:44 68° WNW 17:59:58 18° NNE
Okean O Rocket 4.3 17:57:21 10° SW 18:00:37 21° W 18:03:55 10° NW
Cosmos 2369 Rocket 2.6 17:55:30 10° NNW 18:01:07 63° WSW 18:06:39 10° S
Okean-O 2.4 17:57:35 10° SSE 18:01:59 77° ENE 18:06:26 10° N
Cosmos 1943 Rocket 3.7 17:57:10 10° NW 18:02:13 36° WSW 18:07:15 10° S
Cosmos 1461 3.0 17:58:07 10° SSW 18:02:38 67° ESE 18:02:44 67° ESE
ATLAS CENTAUR R/B 4.4 17:44:45 10° NW 18:03:21 73° WSW 18:09:52 10° SSE
Meteor 1-5 Rocket 4.2 17:57:30 10° N 18:03:24 86° W 18:09:05 10° S
CENTAUR R/B 2.3 18:00:15 10° SSW 18:05:52 70° ESE 18:07:44 46° NE
ISS -0.9 18:05:51 10° NNW 18:05:55 10° NNW 18:05:55 10° NNW
Cosmos 2112 Rocket 3.9 18:03:18 10° SSW 18:08:35 81° ESE 18:09:53 52° NNE
NOSS 3-2 (C) 3.1 18:08:34 10° SSW 18:14:02 79° ESE 18:15:09 59° NE
Cosmos 1437 Rocket 4.2 18:13:04 10° S 18:15:08 29° S 18:15:08 29° S
Meteor 1-27 Rocket 3.5 18:14:02 10° S 18:19:32 80° E 18:20:11 68° NE
BREEZE-M DEB (TANK) 3.7 18:11:50 10° WSW 18:19:46 51° NW 18:19:59 51° NNW
Hubble Space Telescope 3.5 18:26:50 10° SSW 18:27:05 11° S 18:27:05 11° S
FALCON 9 R/B 3.9 18:28:19 10° WSW 18:28:30 11° WSW 18:28:30 11° WSW
Cosmos 1339 Rocket 4.5 18:25:53 10° S 18:31:11 64° SE 18:31:11 64° SE
Gblst 52 Del rocket 4.2 18:31:05 10° SW 18:37:18 85° WSW 18:37:18 85° WSW
NOSS 3-2 (A) 4.3 18:34:19 10° WSW 18:39:40 43° NW 18:41:27 35° N
USA 215 3.7 18:46:42 46° N 18:47:59 52° NW 18:54:17 10° WSW
USA 281 4.1 19:04:30 10° S 19:10:44 46° WSW 19:17:01 10° NW
H-2A R/B 4.0 19:15:55 23° NW 19:15:55 23° NW 19:18:14 10° NNW
USA 267 4.3 19:21:33 37° NW 19:21:33 37° NW 19:25:16 10° NW
